TimePST,TemperatureF,Dew PointF,Humidity,Sea Level PressureIn,VisibilityMPH,Wind Direction,Wind SpeedMPH,Gust SpeedMPH,PrecipitationIn,Events,Conditions,WindDirDegrees,DateUTC
12:54 AM,37.9,33.1,83,30.27,10.0,ENE,5.8,-,N/A,,Scattered Clouds,70,2013-01-29 08:54:00
1:54 AM,39.0,32.0,76,30.27,10.0,Calm,Calm,-,N/A,,Mostly Cloudy,0,2013-01-29 09:54:00
2:54 AM,39.0,32.0,76,30.27,10.0,East,3.5,-,N/A,,Clear,80,2013-01-29 10:54:00
3:54 AM,39.0,33.1,79,30.27,10.0,East,4.6,-,N/A,,Clear,100,2013-01-29 11:54:00
4:54 AM,37.0,32.0,82,30.27,10.0,Calm,Calm,-,N/A,,Clear,0,2013-01-29 12:54:00
5:54 AM,37.9,32.0,79,30.28,10.0,Calm,Calm,-,N/A,,Clear,0,2013-01-29 13:54:00
6:54 AM,36.0,30.9,82,30.29,10.0,SE,3.5,-,N/A,,Clear,130,2013-01-29 14:54:00
7:54 AM,39.9,34.0,79,30.31,10.0,Calm,Calm,-,N/A,,Clear,0,2013-01-29 15:54:00
8:54 AM,45.0,34.0,65,30.32,10.0,SE,3.5,-,N/A,,Clear,130,2013-01-29 16:54:00
9:54 AM,48.9,35.1,59,30.33,10.0,SW,4.6,-,N/A,,Clear,230,2013-01-29 17:54:00
10:54 AM,51.1,35.1,54,30.34,10.0,WSW,3.5,-,N/A,,Clear,250,2013-01-29 18:54:00
11:54 AM,53.1,37.0,55,30.31,10.0,Calm,Calm,-,N/A,,Scattered Clouds,0,2013-01-29 19:54:00
12:54 PM,53.1,36.0,52,30.29,10.0,Calm,Calm,-,N/A,,Overcast,0,2013-01-29 20:54:00
1:54 PM,55.9,36.0,47,30.27,10.0,Calm,Calm,-,N/A,,Mostly Cloudy,0,2013-01-29 21:54:00
2:54 PM,55.0,36.0,49,30.26,10.0,Variable,4.6,-,N/A,,Overcast,0,2013-01-29 22:54:00
3:54 PM,55.0,35.1,47,30.26,10.0,NW,4.6,-,N/A,,Clear,320,2013-01-29 23:54:00
4:54 PM,54.0,36.0,51,30.26,10.0,ESE,4.6,-,N/A,,Clear,110,2013-01-30 00:54:00
5:54 PM,52.0,37.0,57,30.27,10.0,ESE,3.5,-,N/A,,Clear,110,2013-01-30 01:54:00
6:54 PM,46.9,37.0,68,30.28,10.0,Calm,Calm,-,N/A,,Clear,0,2013-01-30 02:54:00
7:54 PM,46.0,37.9,73,30.29,10.0,East,3.5,-,N/A,,Clear,80,2013-01-30 03:54:00
8:54 PM,46.0,37.0,71,30.29,10.0,Calm,Calm,-,N/A,,Clear,0,2013-01-30 04:54:00
9:54 PM,42.1,35.1,76,30.29,10.0,Calm,Calm,-,N/A,,Clear,0,2013-01-30 05:54:00
10:54 PM,42.1,36.0,79,30.31,10.0,Calm,Calm,-,N/A,,Clear,0,2013-01-30 06:54:00
11:54 PM,39.9,35.1,83,30.32,10.0,NNE,5.8,-,N/A,,Clear,30,2013-01-30 07:54:00